Temperature
-0 -0 -1 -1 -0 -0 -0 -0 -0 -0 -0 -0 -0 -0 -0 0 0 0 0 0 0 0 0 0 1 1 1 1 1 1 1 1 1 1 1 2 2 2 2 2 2 2 3
-1 -1 -1 -1 -1 -1 -1 -1 -1 -1 -1 -0 -0 -0 -0 -0 -0 -0 -0 -0 -0 0 0 0 0 0 0 0 0 0 0 1 1 1 1 1 1 1 2 2 2 2 2
-1 -1 -1 -1 -1 -1 -1 -1 -1 -1 -1 -1 -1 -1 -1 -1 -1 -1 -1 -1 -0 -0 -0 -0 -0 -0 -0 -0 -0 -0 -0 -0 0 0 0 0 1 1 1 1 1 1 1
-2 -2 -2 -2 -2 -2 -2 -2 -2 -2 -2 -1 -1 -1 -1 -1 -1 -1 -1 -1 -1 -1 -1 -1 -1 -1 -1 -1 -1 -1 -1 -1 -0 -0 -0 0 0 0 0 0 1 1 1
-2 -2 -2 -2 -2 -2 -2 -2 -2 -2 -2 -2 -2 -2 -2 -2 -2 -2 -2 -2 -1 -1 -1 -1 -1 -1 -1 -1 -1 -1 -1 -1 -1 -1 -1 -1 -1 -1 -1 -1 -0 -0 0
-3 -3 -3 -3 -3 -3 -3 -3 -3 -3 -3 -2 -2 -2 -2 -2 -2 -2 -2 -2 -2 -2 -2 -2 -2 -2 -2 -2 -2 -2 -2 -2 -2 -2 -1 -1 -1 -1 -1 -1 -1 -1 -1
-3 -3 -3 -3 -3 -3 -3 -3 -3 -3 -3 -3 -3 -3 -3 -2 -3 -2 -2 -2 -2 -2 -2 -2 -2 -2 -2 -2 -2 -2 -2 -2 -2 -2 -2 -2 -2 -2 -2 -2 -2 -2 -2
-3 -3 -3 -3 -3 -3 -4 -4 -4 -3 -3 -3 -3 -3 -3 -3 -3 -3 -2 -2 -2 -2 -3 -3 -3 -2 -2 -2 -2 -2 -2 -2 -2 -2 -2 -2 -2 -2 -2 -2 -2 -2 -2
-4 -4 -4 -4 -4 -4 -4 -4 -4 -4 -4 -4 -4 -3 -3 -3 -3 -3 -3 -3 -3 -3 -3 -3 -3 -3 -3 -3 -3 -3 -2 -2 -3 -3 -3 -3 -3 -3 -3 -3 -3 -3 -3
-4 -4 -4 -4 -4 -4 -4 -4 -4 -4 -4 -4 -4 -4 -4 -4 -3 -3 -3 -3 -3 -3 -3 -3 -3 -3 -3 -3 -3 -3 -3 -3 -3 -3 -3 -3 -3 -3 -3 -3 -3 -3 -3
-4 -4 -4 -4 -5 -5 -5 -5 -5 -5 -5 -4 -4 -4 -4 -4 -4 -4 -4 -4 -3 -3 -3 -3 -3 -3 -3 -3 -3 -3 -3 -3 -3 -3 -3 -3 -3 -3 -3 -3 -3 -3 -4
-5 -5 -5 -5 -5 -5 -5 -5 -5 -5 -5 -5 -5 -4 -4 -4 -4 -4 -4 -4 -4 -4 -3 -3 -3 -3 -3 -3 -3 -3 -3 -3 -3 -3 -3 -3 -3 -4 -4 -4 -4 -4 -4
-5 -5 -5 -5 -5 -5 -5 -5 -5 -5 -5 -5 -5 -5 -5 -5 -5 -4 -4 -4 -4 -4 -4 -4 -4 -4 -4 -4 -4 -4 -4 -4 -4 -4 -4 -4 -4 -4 -4 -4 -4 -4 -4
-5 -5 -6 -6 -6 -6 -6 -6 -6 -5 -6 -6 -6 -5 -5 -5 -5 -5 -5 -4 -4 -4 -4 -4 -4 -4 -4 -4 -4 -4 -4 -4 -4 -4 -4 -4 -4 -4 -4 -4 -4 -4 -4
-6 -6 -6 -6 -6 -6 -6 -6 -6 -6 -6 -6 -6 -6 -5 -5 -5 -5 -5 -5 -5 -5 -5 -5 -4 -4 -4 -5 -5 -4 -5 -4 -4 -4 -4 -5 -5 -5 -5 -5 -5 -5 -5
-6 -6 -6 -6 -6 -6 -6 -6 -6 -6 -6 -6 -6 -6 -6 -6 -5 -5 -5 -5 -5 -5 -5 -5 -5 -5 -5 -5 -5 -5 -5 -5 -5 -5 -5 -5 -5 -5 -5 -5 -5 -5 -5
-6 -6 -6 -6 -6 -6 -6 -6 -6 -6 -6 -6 -6 -6 -6 -6 -6 -6 -6 -5 -5 -5 -5 -5 -5 -5 -5 -5 -5 -5 -5 -5 -5 -5 -5 -5 -5 -6 -6 -5 -6 -6 -6
-7 -7 -7 -7 -7 -7 -7 -7 -7 -6 -6 -6 -6 -6 -6 -6 -6 -6 -6 -6 -6 -6 -6 -6 -6 -6 -6 -5 -5 -5 -5 -6 -6 -6 -6 -6 -6 -6 -6 -6 -6 -6 -6
-7 -7 -7 -7 -7 -7 -7 -7 -7 -7 -7 -7 -7 -7 -7 -7 -6 -6 -6 -6 -6 -6 -6 -6 -6 -6 -6 -6 -6 -6 -6 -6 -6 -6 -6 -6 -6 -6 -6 -6 -6 -6 -6
-7 -7 -7 -7 -7 -7 -7 -7 -7 -7 -7 -7 -7 -7 -7 -7 -7 -7 -7 -7 -6 -6 -6 -6 -6 -6 -6 -6 -6 -6 -6 -6 -6 -6 -6 -6 -6 -6 -6 -7 -7 -7 -7
-8 -8 -8 -8 -7 -7 -7 -7 -7 -7 -7 -7 -7 -7 -7 -7 -7 -7 -7 -7 -7 -7 -7 -6 -6 -6 -6 -6 -6 -6 -6 -6 -6 -6 -7 -7 -7 -7 -7 -7 -7 -7 -7
-8 -8 -8 -8 -8 -7 -7 -7 -7 -7 -7 -7 -7 -7 -7 -7 -7 -7 -7 -7 -7 -7 -7 -7 -7 -7 -7 -7 -7 -7 -7 -7 -7 -7 -7 -7 -7 -7 -7 -7 -7 -7 -7
-8 -8 -8 -8 -8 -8 -8 -8 -8 -7 -8 -8 -8 -7 -7 -8 -8 -8 -8 -8 -7 -7 -7 -7 -7 -7 -7 -7 -7 -7 -7 -7 -7 -7 -7 -7 -7 -7 -7 -7 -7 -7 -7
-8 -8 -8 -8 -8 -8 -8 -8 -8 -8 -8 -8 -8 -8 -8 -8 -8 -8 -8 -8 -8 -7 -7 -7 -7 -7 -7 -7 -7 -7 -7 -7 -7 -7 -7 -7 -7 -7 -7 -7 -7 -7 -7
-8 -8 -8 -8 -8 -8 -8 -8 -8 -8 -8 -8 -8 -8 -8 -8 -8 -8 -8 -8 -8 -8 -7 -7 -7 -7 -7 -7 -7 -7 -7 -7 -7 -7 -7 -7 -7 -7 -7 -7 -7 -7 -7
-8 -8 -8 -8 -8 -8 -8 -8 -8 -8 -8 -8 -8 -8 -8 -8 -8 -8 -8 -8 -8 -8 -8 -7 -7 -7 -7 -7 -7 -7 -7 -7 -7 -7 -7 -7 -7 -7 -7 -7 -7 -7 -8
Wind_Speed
3 3 3 3 3 3 3 4 4 4 4 4 4 4 4 3 3 2 2 2 2 2 2 2 2 2 1 2 1 1 2 2 3 3 2 2 2 2 3 4 5 5 6
3 3 3 4 3 3 4 4 4 4 4 4 4 4 4 3 3 2 3 2 3 3 2 2 2 2 2 2 2 2 2 2 3 3 2 2 2 1 1 2 4 4 5
3 3 3 4 3 4 4 4 4 3 3 3 3 3 3 3 3 3 3 3 3 3 3 3 3 2 2 2 2 2 2 2 2 3 3 2 1 0 1 2 3 3 5
3 3 4 4 4 4 4 4 3 3 3 3 4 3 3 3 3 3 3 3 3 3 3 3 3 3 4 3 3 3 2 2 2 2 2 1 1 1 0 1 2 3 3
3 3 4 4 4 4 3 3 3 3 3 3 3 3 3 3 3 3 3 3 3 3 3 3 4 4 5 4 3 2 2 2 2 2 2 1 1 0 0 0 1 2 3
3 3 4 4 4 4 4 3 3 3 3 3 3 3 3 3 5 4 3 2 3 3 3 3 4 4 5 5 5 4 3 3 3 2 2 2 2 1 1 1 0 2 2
3 3 3 3 3 4 4 3 3 3 3 3 4 4 4 5 6 5 4 2 2 3 3 3 3 4 3 2 3 3 3 4 4 3 3 3 3 3 2 1 1 1 2
3 3 3 3 3 4 4 4 3 3 3 3 4 4 4 5 6 6 5 1 2 2 3 3 4 4 3 2 2 2 2 2 2 2 3 3 3 3 3 2 2 1 1
4 4 4 3 3 3 4 4 4 3 3 4 4 4 4 5 6 6 4 1 2 3 3 3 3 3 4 3 2 1 1 2 2 2 3 3 2 2 1 1 1 0 1
4 4 4 3 3 4 4 4 3 3 4 4 4 3 4 4 6 6 4 1 2 2 3 3 3 3 4 2 2 2 2 2 1 0 0 1 0 1 0 1 2 1 1
5 4 4 4 4 4 3 3 3 3 3 3 4 4 3 4 5 6 5 2 2 2 2 2 3 4 3 3 2 2 3 1 1 1 1 0 1 0 0 0 1 1 1
4 4 4 4 3 3 3 3 3 3 3 3 3 4 3 4 4 5 6 5 3 2 2 2 2 3 2 2 1 1 0 1 1 1 1 0 0 0 0 1 1 1 2
4 4 4 4 3 3 3 3 2 2 2 3 3 3 3 3 4 5 6 5 4 2 2 2 2 2 2 1 0 1 1 1 1 1 1 0 0 0 0 1 2 2 2
4 4 4 3 3 3 3 3 3 3 3 3 3 3 3 3 3 3 3 3 3 2 1 1 1 1 1 1 1 1 1 1 1 1 1 0 0 0 1 1 1 1 2
4 4 4 3 3 3 3 3 3 4 4 3 3 3 3 3 4 5 3 2 1 1 1 0 0 0 0 1 1 1 1 1 1 1 1 1 1 1 1 1 1 1 1
4 3 3 3 3 3 3 3 4 4 5 5 4 4 4 4 5 5 5 4 2 1 1 1 1 1 0 1 1 1 1 1 0 1 1 1 0 0 1 1 1 1 1
4 4 3 3 3 3 3 3 3 4 4 4 4 5 4 4 4 4 4 3 2 2 1 1 1 1 0 1 1 0 0 0 0 0 0 0 0 0 0 1 1 1 1
4 4 3 3 3 3 3 3 2 2 3 3 4 5 5 4 4 3 3 2 1 2 1 0 0 0 0 1 1 1 0 0 0 0 0 0 0 0 0 1 1 1 2
3 3 3 3 2 2 2 2 2 2 2 2 3 3 4 4 3 3 2 1 1 1 1 1 0 0 0 0 0 0 1 1 0 0 0 0 0 0 0 1 1 2 2
3 5 3 2 2 2 2 2 2 2 2 2 2 2 2 2 1 2 2 1 1 1 1 1 1 1 0 0 0 0 1 1 1 1 1 0 0 0 1 1 1 1 2
3 3 4 3 2 2 2 2 2 2 2 2 2 3 2 1 1 1 1 1 1 1 1 1 1 1 0 0 0 1 1 1 1 1 1 1 1 1 1 1 1 1 1
3 3 2 2 2 2 2 2 2 2 2 2 2 2 3 1 1 1 1 1 1 1 1 1 1 1 1 1 1 1 2 2 2 2 1 1 1 1 1 1 1 1 1
3 3 3 2 2 3 2 2 2 2 2 2 2 2 2 1 1 1 1 1 1 1 2 1 1 1 1 1 2 3 3 3 3 3 2 2 2 2 1 1 1 1 1
2 3 3 3 2 2 2 2 2 2 2 2 2 2 2 2 1 2 1 1 1 2 1 1 1 1 1 2 2 3 4 4 4 4 4 3 2 2 1 1 2 2 1
2 2 3 3 2 2 2 2 2 2 2 2 2 2 2 2 2 2 1 1 1 1 2 1 2 2 2 3 2 2 3 3 3 3 4 3 2 2 2 2 2 1 1
2 3 3 2 2 2 2 2 3 3 2 2 2 2 2 2 2 2 1 1 1 1 2 2 2 3 3 3 3 2 2 2 2 3 3 3 2 2 2 2 2 2 1
Wind_Direction
309 307 311 305 300 298 289 284 286 292 296 291 286 289 290 283 273 259 257 253 248 262 273 263 270 273 282 290 289 267 249 226 244 272 269 284 302 323 349 346 332 334 334
303 301 298 301 301 297 292 290 292 290 292 287 286 282 283 282 277 262 265 258 247 253 261 264 272 273 283 284 274 263 254 241 224 256 271 276 276 284 335 337 334 337 332
306 300 299 298 297 293 293 296 299 298 301 304 299 286 285 280 269 265 261 260 254 250 247 246 255 253 262 267 262 260 260 256 232 230 253 256 266 300 6 346 346 344 342
308 306 299 296 293 291 296 301 301 300 300 298 298 291 288 283 269 265 263 265 261 262 256 248 248 241 248 251 249 249 261 258 240 235 246 254 265 256 107 6 352 354 346
303 302 298 302 304 302 299 300 302 307 308 306 307 308 305 290 274 270 261 267 262 268 271 265 261 259 260 252 245 232 232 244 239 235 244 237 229 219 250 288 322 343 338
298 296 303 306 311 310 306 305 308 311 311 313 309 308 305 301 304 297 292 270 265 262 270 275 274 265 263 265 264 251 232 232 233 231 235 233 232 221 214 245 259 339 321
303 303 308 308 311 309 311 313 307 304 311 312 306 301 296 302 312 309 309 293 265 264 269 278 285 281 276 256 265 269 258 247 235 233 228 226 219 215 210 227 257 289 282
304 307 307 311 309 312 312 307 304 302 302 299 301 300 300 307 315 317 325 320 278 278 268 260 268 278 273 252 252 262 268 260 259 249 233 232 226 213 206 209 213 313 325
298 301 300 297 300 305 303 302 303 303 302 299 297 297 299 304 313 315 328 298 303 298 288 274 272 263 272 258 226 240 269 288 293 272 263 252 238 236 207 129 122 77 325
291 294 294 288 285 283 283 289 296 298 298 303 304 301 294 294 305 313 323 291 294 296 295 288 287 285 273 256 205 208 240 259 260 332 0 343 220 188 197 169 186 200 273
293 294 294 290 284 279 283 284 289 299 306 308 306 303 294 297 307 311 313 300 279 286 292 295 292 301 287 266 231 209 230 222 152 154 157 118 87 101 138 188 190 193 210
296 296 294 290 286 288 286 289 293 296 300 299 303 310 305 302 307 307 315 310 310 276 282 282 288 314 327 301 260 216 193 112 124 131 129 131 115 22 5 350 334 305 257
301 297 296 295 291 285 276 282 289 285 284 290 292 297 303 306 306 308 312 310 311 315 283 297 320 337 337 328 35 112 125 130 135 132 148 224 307 198 21 29 22 21 360
293 293 295 296 296 295 288 282 275 271 273 279 288 291 297 302 299 300 301 308 315 325 319 306 329 356 357 2 80 110 118 149 153 164 171 137 43 38 43 47 12 21 11
290 289 293 289 285 290 291 277 276 265 264 270 268 272 280 289 299 312 315 296 279 262 274 194 167 89 34 73 74 74 81 95 102 109 131 97 41 28 357 358 5 10 347
292 293 289 286 289 290 296 305 300 293 296 295 292 297 290 297 311 319 318 321 320 334 103 145 170 173 178 111 92 73 59 61 81 119 134 126 88 14 352 355 5 13 344
284 289 288 287 288 290 293 297 310 319 314 312 309 311 317 322 324 326 323 330 6 55 78 113 152 178 174 138 147 157 193 359 49 104 121 125 115 25 335 338 357 353 328
291 289 288 283 284 282 283 287 285 290 309 315 314 315 322 324 329 340 347 10 32 40 40 266 235 202 160 159 164 164 142 88 90 101 92 137 171 220 315 311 319 315 310
294 285 285 286 284 280 282 287 289 287 290 305 321 322 326 325 328 343 2 31 26 3 354 334 323 335 48 128 162 175 166 178 175 162 172 210 211 218 295 297 304 312 316
301 295 299 295 293 289 285 285 290 294 297 298 301 304 322 340 340 341 354 10 4 348 346 334 335 333 325 173 175 188 179 191 196 186 188 200 215 238 270 279 276 288 305
309 306 308 307 298 295 292 287 287 287 287 290 289 296 317 317 301 313 321 322 321 313 317 316 312 314 304 232 203 205 208 218 217 207 198 197 204 252 274 270 274 295 313
309 305 305 305 304 300 303 300 294 292 290 291 299 301 309 328 312 307 305 310 309 301 298 296 289 279 255 231 218 216 218 220 221 211 203 207 220 229 241 262 276 294 305
313 312 310 309 304 303 310 305 296 290 292 295 299 301 306 306 301 300 301 306 309 307 302 285 274 285 272 249 229 217 218 226 224 211 201 207 215 223 225 239 249 260 272
311 308 309 310 307 299 298 295 292 291 292 291 293 295 294 292 295 299 302 301 302 305 309 299 283 281 285 281 259 237 234 234 223 207 202 205 208 216 220 222 233 248 255
312 311 307 304 302 299 296 294 291 290 293 293 293 296 300 302 304 305 301 302 305 303 311 308 296 291 291 290 276 250 239 232 215 200 194 191 197 205 211 219 226 241 246
306 306 304 300 296 293 290 290 291 288 283 287 291 292 291 291 294 299 299 301 305 305 307 306 305 302 297 291 278 252 244 233 215 202 187 185 190 202 210 216 222 231 225
Height
1480 1479 1478 1477 1476 1475 1474 1473 1472 1471 1470 1469 1468 1468 1468 1468 1468 1468 1468 1468 1468 1468 1468 1468 1469 1469 1469 1469 1469 1470 1470 1470 1469 1468 1469 1469 1469 1468 1468 1468 1468 1467 1467
1477 1476 1475 1474 1473 1472 1471 1470 1469 1468 1467 1466 1465 1465 1464 1464 1464 1464 1465 1465 1465 1465 1465 1465 1466 1466 1466 1466 1466 1466 1466 1466 1466 1465 1465 1465 1465 1465 1465 1465 1465 1465 1464
1474 1473 1472 1471 1470 1469 1468 1467 1466 1465 1464 1464 1463 1462 1462 1461 1461 1461 1461 1462 1462 1462 1462 1462 1462 1462 1462 1462 1463 1463 1462 1462 1462 1462 1462 1462 1462 1462 1462 1462 1462 1462 1462
1471 1470 1469 1468 1467 1466 1465 1464 1463 1463 1462 1461 1460 1459 1459 1459 1458 1458 1458 1459 1459 1459 1459 1459 1459 1459 1459 1459 1459 1459 1459 1459 1459 1458 1458 1459 1459 1459 1459 1459 1459 1459 1459
1469 1467 1466 1465 1464 1464 1463 1462 1461 1460 1459 1458 1457 1457 1456 1456 1456 1456 1456 1456 1456 1456 1456 1456 1456 1456 1456 1456 1456 1456 1456 1455 1455 1455 1455 1455 1456 1456 1457 1457 1456 1456 1456
1466 1465 1464 1463 1462 1461 1460 1459 1458 1457 1456 1455 1455 1454 1454 1454 1453 1453 1453 1453 1453 1453 1453 1453 1452 1452 1452 1452 1452 1452 1452 1452 1452 1452 1452 1453 1453 1454 1454 1454 1454 1453 1453
1463 1462 1461 1460 1459 1458 1457 1456 1455 1454 1454 1453 1452 1452 1451 1451 1451 1451 1451 1450 1450 1450 1449 1449 1449 1449 1449 1449 1449 1449 1449 1449 1450 1450 1450 1450 1450 1451 1451 1451 1452 1452 1451
1460 1459 1458 1457 1456 1455 1454 1454 1453 1452 1451 1451 1450 1449 1449 1449 1448 1448 1448 1447 1447 1447 1447 1446 1447 1446 1446 1446 1446 1446 1446 1446 1447 1447 1447 1448 1448 1449 1449 1450 1450 1450 1450
1458 1457 1456 1455 1454 1453 1452 1451 1450 1450 1449 1448 1448 1447 1446 1446 1446 1446 1446 1445 1444 1444 1444 1444 1444 1443 1443 1443 1443 1443 1443 1443 1444 1444 1445 1445 1446 1447 1447 1448 1447 1447 1446
1455 1454 1453 1452 1451 1450 1450 1449 1448 1447 1446 1446 1445 1445 1444 1444 1443 1443 1443 1442 1442 1441 1441 1441 1441 1441 1441 1440 1440 1440 1440 1441 1441 1442 1442 1443 1444 1445 1445 1446 1445 1445 1444
1453 1452 1451 1450 1449 1448 1447 1447 1446 1445 1444 1443 1443 1442 1442 1441 1441 1441 1441 1440 1439 1439 1438 1438 1438 1438 1438 1438 1438 1438 1438 1439 1439 1440 1440 1441 1441 1442 1443 1443 1443 1443 1443
1450 1449 1448 1447 1446 1445 1445 1444 1443 1442 1441 1441 1440 1440 1439 1439 1439 1438 1438 1438 1437 1436 1435 1435 1435 1435 1435 1436 1436 1436 1437 1437 1437 1438 1438 1438 1439 1440 1440 1440 1441 1441 1440
1447 1446 1445 1444 1444 1443 1442 1441 1440 1440 1439 1438 1438 1437 1437 1436 1436 1436 1435 1435 1434 1434 1433 1433 1433 1433 1433 1433 1434 1434 1434 1435 1435 1435 1436 1436 1437 1437 1438 1438 1438 1438 1438
1444 1443 1442 1441 1440 1440 1439 1438 1437 1437 1436 1436 1435 1435 1434 1434 1433 1433 1433 1432 1432 1431 1431 1431 1431 1431 1431 1431 1432 1432 1433 1433 1434 1434 1434 1434 1435 1435 1435 1435 1435 1435 1435
1441 1440 1439 1439 1438 1437 1436 1436 1435 1434 1434 1434 1433 1433 1432 1431 1431 1431 1430 1430 1429 1429 1428 1428 1428 1429 1429 1429 1430 1430 1431 1432 1432 1432 1432 1433 1433 1433 1433 1433 1433 1433 1432
1439 1438 1437 1436 1435 1434 1433 1433 1432 1432 1432 1432 1431 1431 1430 1430 1429 1428 1428 1428 1427 1427 1427 1426 1426 1427 1427 1428 1428 1429 1430 1430 1430 1431 1431 1431 1431 1431 1431 1432 1431 1431 1431
1436 1435 1434 1434 1433 1432 1431 1430 1430 1430 1430 1429 1429 1428 1428 1428 1427 1426 1426 1426 1425 1425 1425 1425 1425 1426 1426 1427 1427 1428 1428 1429 1429 1429 1429 1429 1430 1430 1430 1430 1430 1430 1429
1434 1433 1432 1431 1431 1430 1429 1429 1428 1427 1427 1426 1427 1426 1426 1426 1425 1425 1425 1424 1424 1424 1424 1424 1424 1424 1425 1425 1426 1426 1427 1427 1428 1428 1428 1428 1428 1428 1428 1428 1428 1428 1428
1432 1431 1430 1429 1428 1428 1427 1427 1426 1426 1425 1425 1424 1424 1424 1424 1424 1424 1423 1423 1422 1422 1422 1423 1423 1423 1424 1424 1425 1425 1426 1426 1426 1427 1427 1427 1427 1427 1427 1427 1427 1427 1426
1430 1429 1428 1427 1426 1426 1425 1425 1424 1424 1423 1423 1423 1422 1422 1422 1421 1421 1421 1421 1421 1421 1421 1421 1422 1422 1423 1423 1424 1424 1424 1425 1425 1425 1425 1426 1426 1426 1426 1426 1426 1426 1425
1429 1428 1427 1426 1425 1424 1424 1423 1422 1422 1422 1421 1421 1421 1421 1420 1420 1420 1420 1420 1420 1420 1420 1420 1421 1421 1421 1422 1422 1423 1423 1423 1424 1424 1424 1424 1425 1425 1425 1425 1425 1424 1424
1427 1426 1425 1424 1423 1423 1422 1421 1421 1420 1420 1420 1419 1419 1419 1419 1418 1418 1418 1418 1419 1419 1419 1419 1419 1420 1420 1420 1421 1421 1421 1422 1422 1422 1423 1423 1423 1423 1424 1423 1423 1423 1423
1426 1425 1424 1423 1422 1421 1420 1420 1419 1419 1418 1418 1418 1417 1417 1417 1417 1417 1417 1417 1417 1417 1418 1418 1418 1418 1418 1419 1419 1419 1420 1420 1421 1421 1421 1421 1422 1422 1422 1422 1422 1422 1422
1425 1424 1422 1421 1421 1420 1419 1418 1418 1417 1417 1416 1416 1416 1416 1415 1415 1415 1415 1415 1415 1416 1416 1416 1416 1416 1416 1417 1417 1417 1418 1419 1419 1419 1420 1420 1420 1421 1421 1421 1421 1421 1420
1423 1422 1421 1420 1419 1418 1417 1416 1416 1415 1415 1414 1414 1414 1414 1414 1414 1414 1414 1414 1414 1414 1414 1414 1414 1414 1415 1415 1415 1415 1416 1417 1417 1418 1418 1419 1419 1419 1420 1420 1419 1419 1419
1422 1421 1420 1419 1418 1417 1416 1415 1414 1414 1413 1413 1413 1412 1412 1412 1412 1412 1412 1412 1412 1412 1413 1413 1412 1413 1413 1413 1413 1414 1414 1415 1416 1416 1417 1417 1418 1418 1418 1418 1418 1418 1418